| time (UTC) | temp F | wind direction | speed MPH | gust MPH | rain 1hr in | rain 24hr in | rain mn in | humidity % | barometer mb |
| 20260905202628 | 61 | 334 | 0.0 | 1.0 | 0.00 | 0.08 | 0.08 | 59 | 1025.3 |
| 20260905201107 | 62 | 286 | 0.0 | 2.0 | 0.00 | 0.08 | 0.08 | 58 | 1025.1 |
| 20260905195607 | 62 | 270 | 0.0 | 2.0 | 0.00 | 0.08 | 0.08 | 56 | 1024.7 |
| 20260905194107 | 62 | 247 | 0.0 | 3.0 | 0.00 | 0.08 | 0.08 | 56 | 1024.4 |
| 20260905192607 | 62 | 273 | 0.0 | 2.0 | 0.00 | 0.08 | 0.08 | 57 | 1024.5 |
| 20260905191114 | 62 | 282 | 0.0 | 3.0 | 0.00 | 0.08 | 0.08 | 55 | 1024.4 |
| 20260905185607 | 62 | 247 | 0.0 | 4.0 | 0.00 | 0.08 | 0.08 | 55 | 1024.2 |
| 20260905184114 | 62 | 283 | 2.0 | 3.0 | 0.00 | 0.08 | 0.08 | 56 | 1024.0 |
| 20260905182611 | 62 | 14 | 0.0 | 3.0 | 0.00 | 0.08 | 0.08 | 56 | 1023.8 |
| 20260905181107 | 62 | 262 | 0.0 | 2.0 | 0.00 | 0.08 | 0.08 | 56 | 1023.5 |
| 20260905175608 | 63 | 239 | 0.0 | 1.0 | 0.00 | 0.08 | 0.08 | 55 | 1023.5 |
| 20260905174107 | 64 | 278 | 0.0 | 4.0 | 0.00 | 0.08 | 0.08 | 53 | 1023.1 |
| 20260905172607 | 65 | 215 | 1.0 | 3.0 | 0.00 | 0.08 | 0.08 | 51 | 1022.8 |
| 20260905171107 | 66 | 334 | 0.0 | 3.0 | 0.00 | 0.08 | 0.08 | 50 | 1022.9 |
| 20260905165611 | 66 | 307 | 0.0 | 3.0 | 0.00 | 0.08 | 0.08 | 49 | 1022.7 |
| 20260905164108 | 67 | 279 | 0.0 | 3.0 | 0.00 | 0.08 | 0.08 | 47 | 1022.6 |
| 20260905162610 | 68 | 359 | 0.0 | 6.0 | 0.00 | 0.08 | 0.08 | 46 | 1022.6 |
| 20260905161107 | 70 | 314 | 0.0 | 4.0 | 0.00 | 0.08 | 0.08 | 44 | 1022.1 |
| 20260905155604 | 70 | 286 | 2.0 | 4.0 | 0.00 | 0.08 | 0.08 | 45 | 1022.0 |
| 20260905154049 | 71 | 300 | 0.0 | 8.0 | 0.00 | 0.08 | 0.08 | 45 | 1022.0 |
| 20260905152549 | 69 | 275 | 1.0 | 7.0 | 0.00 | 0.08 | 0.08 | 46 | 1022.3 |
| 20260905151049 | 70 | 291 | 3.0 | 9.0 | 0.00 | 0.08 | 0.08 | 44 | 1022.1 |
| 20260905145549 | 71 | 231 | 0.0 | 9.0 | 0.00 | 0.08 | 0.08 | 46 | 1022.0 |
| 20260905144051 | 71 | 309 | 1.0 | 6.0 | 0.00 | 0.08 | 0.08 | 44 | 1021.8 |
| 20260905142550 | 71 | 328 | 0.0 | 6.0 | 0.00 | 0.08 | 0.08 | 47 | 1021.9 |
| 20260905141050 | 70 | 245 | 3.0 | 7.0 | 0.00 | 0.08 | 0.08 | 47 | 1021.8 |
| 20260905135549 | 71 | 290 | 4.0 | 7.0 | 0.00 | 0.08 | 0.08 | 45 | 1022.0 |
| 20260905134048 | 71 | 285 | 2.0 | 6.0 | 0.00 | 0.08 | 0.08 | 46 | 1021.9 |
| 20260905132550 | 71 | 274 | 1.0 | 8.0 | 0.00 | 0.08 | 0.08 | 46 | 1022.2 |
| 20260905131049 | 71 | 198 | 1.0 | 6.0 | 0.00 | 0.08 | 0.08 | 47 | 1021.9 |
| 20260905125552 | 71 | 204 | 1.0 | 8.0 | 0.00 | 0.08 | 0.08 | 47 | 1022.1 |
| 20260905124048 | 71 | 251 | 2.0 | 10.0 | 0.00 | 0.08 | 0.08 | 47 | 1022.1 |
| 20260905122549 | 70 | 289 | 2.0 | 8.0 | 0.00 | 0.08 | 0.08 | 48 | 1022.2 |
| 20260905121049 | 70 | 274 | 4.0 | 13.0 | 0.00 | 0.08 | 0.08 | 49 | 1022.3 |
| 20260905115548 | 70 | 288 | 2.0 | 7.0 | 0.00 | 0.08 | 0.08 | 52 | 1022.5 |
| 20260905114050 | 68 | 249 | 1.0 | 7.0 | 0.00 | 0.08 | 0.08 | 53 | 1022.7 |
| 20260905112549 | 70 | 271 | 2.0 | 4.0 | 0.00 | 0.08 | 0.08 | 52 | 1022.4 |
| 20260905111053 | 69 | 322 | 0.0 | 6.0 | 0.00 | 0.08 | 0.08 | 52 | 1022.7 |
| 20260905105548 | 68 | 289 | 0.0 | 6.0 | 0.00 | 0.08 | 0.08 | 54 | 1022.5 |
| 20260905104048 | 70 | 280 | 0.0 | 11.0 | 0.00 | 0.08 | 0.08 | 53 | 1022.5 |
| 20260905102548 | 69 | 282 | 2.0 | 9.0 | 0.00 | 0.08 | 0.08 | 55 | 1022.7 |
| 20260905101048 | 68 | 206 | 0.0 | 7.0 | 0.00 | 0.08 | 0.08 | 57 | 1022.8 |
| 20260905095548 | 68 | 275 | 5.0 | 11.0 | 0.00 | 0.08 | 0.08 | 57 | 1022.3 |
| 20260905094048 | 69 | 265 | 1.0 | 6.0 | 0.00 | 0.08 | 0.08 | 57 | 1022.4 |
| 20260905092551 | 68 | 251 | 2.0 | 13.0 | 0.00 | 0.08 | 0.08 | 57 | 1022.6 |
| 20260905091048 | 71 | 283 | 3.0 | 8.0 | 0.00 | 0.08 | 0.08 | 58 | 1022.6 |
| 20260905085548 | 69 | 313 | 1.0 | 14.0 | 0.00 | 0.08 | 0.08 | 63 | 1022.3 |
| 20260905084047 | 70 | 271 | 2.0 | 10.0 | 0.00 | 0.08 | 0.08 | 63 | 1022.4 |
| 20260905082541 | 67 | 259 | 1.0 | 13.0 | 0.00 | 0.08 | 0.08 | 68 | 1022.4 |
| 20260905081042 | 65 | 225 | 1.0 | 4.0 | 0.00 | 0.08 | 0.08 | 73 | 1022.1 |
| 20260905075540 | 66 | 229 | 1.0 | 7.0 | 0.00 | 0.08 | 0.08 | 73 | 1022.1 |
| 20260905074041 | 65 | 277 | 0.0 | 9.0 | 0.00 | 0.08 | 0.08 | 75 | 1021.9 |
| 20260905072540 | 64 | 251 | 1.0 | 10.0 | 0.00 | 0.08 | 0.08 | 76 | 1021.9 |
| 20260905071037 | 60 | 265 | 2.0 | 7.0 | 0.00 | 0.08 | 0.08 | 82 | 1021.8 |
| 20260905065538 | 62 | 258 | 1.0 | 6.0 | 0.00 | 0.08 | 0.08 | 77 | 1021.7 |
| 20260905064033 | 62 | 280 | 1.0 | 11.0 | 0.00 | 0.08 | 0.08 | 80 | 1021.7 |
| 20260905062414 | 64 | 267 | 0.0 | 6.0 | 0.00 | 0.08 | 0.08 | 77 | 1021.7 |
| 20260905060908 | 63 | 263 | 1.0 | 8.0 | 0.00 | 0.08 | 0.08 | 80 | 1021.5 |
| 20260905055408 | 60 | 239 | 0.0 | 3.0 | 0.00 | 0.08 | 0.08 | 84 | 1021.5 |
| 20260905053907 | 58 | 262 | 0.0 | 2.0 | 0.00 | 0.08 | 0.08 | 88 | 1021.2 |
| 20260905052407 | 55 | 276 | 0.0 | 3.0 | 0.00 | 0.08 | 0.08 | 90 | 1021.0 |
| 20260905050907 | 55 | 248 | 0.0 | 3.0 | 0.00 | 0.08 | 0.08 | 90 | 1020.7 |
| 20260905045414 | 55 | 268 | 0.0 | 6.0 | 0.00 | 0.08 | 0.08 | 90 | 1020.6 |
| 20260905043908 | 55 | 230 | 0.0 | 4.0 | 0.01 | 0.08 | 0.08 | 91 | 1020.1 |
| 20260905042407 | 56 | 280 | 0.0 | 4.0 | 0.04 | 0.08 | 0.08 | 91 | 1020.3 |
| 20260905040909 | 56 | 234 | 2.0 | 9.0 | 0.05 | 0.08 | 0.08 | 90 | 1020.0 |
| 20260905035407 | 56 | 222 | 1.0 | 6.0 | 0.06 | 0.08 | 0.08 | 90 | 1019.9 |
| 20260905033907 | 56 | 223 | 2.0 | 10.0 | 0.05 | 0.07 | 0.07 | 89 | 1019.1 |
| 20260905032407 | 57 | 270 | 0.0 | 8.0 | 0.02 | 0.04 | 0.04 | 89 | 1020.1 |
| 20260905030913 | 58 | 224 | 0.0 | 4.0 | 0.03 | 0.04 | 0.04 | 89 | 1019.9 |
| 20260905025407 | 58 | 268 | 0.0 | 3.0 | 0.02 | 0.02 | 0.02 | 89 | 1019.3 |
| 20260905023908 | 59 | 256 | 1.0 | 7.0 | 0.02 | 0.02 | 0.02 | 90 | 1019.3 |
| 20260905022409 | 59 | 228 | 2.0 | 7.0 | 0.02 | 0.02 | 0.02 | 89 | 1019.0 |
| 20260905020910 | 59 | 209 | 0.0 | 0.0 | 0.01 | 0.01 | 0.01 | 89 | 1019.4 |
| 20260905015345 | 60 | 209 | 1.0 | 4.0 | 0.01 | 0.01 | 0.01 | 88 | 1018.0 |
| 20260905013837 | 60 | 234 | 0.0 | 4.0 | 0.00 | 0.00 | 0.00 | 86 | 1018.7 |
| 20260905012337 | 60 | 245 | 2.0 | 3.0 | 0.00 | 0.00 | 0.00 | 86 | 1018.4 |
| 20260905010830 | 60 | 285 | 0.0 | 1.0 | 0.00 | 0.00 | 0.00 | 86 | 1018.5 |
| 20260905005325 | 61 | 311 | 0.0 | 0.0 | 0.00 | 0.00 | 0.00 | 85 | 1018.8 |
| 20260905003823 | 61 | 311 | 0.0 | 2.0 | 0.00 | 0.00 | 0.00 | 85 | 1018.3 |
| 20260905002322 | 61 | 335 | 0.0 | 2.0 | 0.00 | 0.00 | 0.00 | 85 | 1018.0 |
| 20260905000822 | 62 | 289 | 0.0 | 3.0 | 0.00 | 0.00 | 0.00 | 83 | 1018.3 |
| 20260904235319 | 62 | 326 | 1.0 | 4.0 | 0.00 | 0.00 | 0.00 | 82 | 1018.0 |
| 20260904233818 | 63 | 321 | 1.0 | 11.0 | 0.00 | 0.00 | 0.00 | 80 | 1017.6 |
| 20260904232317 | 64 | 283 | 2.0 | 8.0 | 0.00 | 0.00 | 0.00 | 78 | 1017.7 |
| 20260904230810 | 64 | 251 | 3.0 | 9.0 | 0.00 | 0.00 | 0.00 | 74 | 1017.0 |
| 20260904225311 | 64 | 301 | 2.0 | 8.0 | 0.00 | 0.00 | 0.00 | 74 | 1016.7 |
| 20260904223754 | 64 | 345 | 0.0 | 9.0 | 0.00 | 0.00 | 0.00 | 74 | 1016.3 |
| 20260904222253 | 63 | 13 | 3.0 | 13.0 | 0.00 | 0.00 | 0.00 | 74 | 1016.1 |
| 20260904220751 | 63 | 46 | 2.0 | 9.0 | 0.00 | 0.00 | 0.00 | 73 | 1016.0 |
| 20260904215248 | 64 | 342 | 3.0 | 11.0 | 0.00 | 0.00 | 0.00 | 71 | 1015.3 |
| 20260904213757 | 64 | 309 | 1.0 | 8.0 | 0.00 | 0.00 | 0.00 | 72 | 1015.1 |
| 20260904212239 | 65 | 4 | 2.0 | 7.0 | 0.00 | 0.00 | 0.00 | 73 | 1014.8 |
| 20260904210738 | 65 | 328 | 0.0 | 7.0 | 0.00 | 0.00 | 0.00 | 73 | 1014.4 |
| 20260904205234 | 65 | 54 | 0.0 | 3.0 | 0.00 | 0.00 | 0.00 | 74 | 1014.2 |